[[{"header":{"parameterUnit":"m.s-1","parameterCategory":1,"la1":30.2991,"la2":30.254,"lo1":-89.0895,"lo2":-89.0444,"dy":0.0017,"dx":0.0017,"nx":28,"ny":28,"refTime":"2024-04-04T09:00:00:Z","depth":0,"parameterNumber":2,"parameterNumberName":"U-component_of_WINDS"},"data":[0,0,0,0,0,0,0,0,0,0,0,0,0,0,0,0,0,0,0,0,0,0,0,0,0,0,0,0,0,0,0,0,0,0,0,0,0,0,0,0,0,0,0,0,0,0,0,0,0,0,0,0,0,0,0,0,0,0,0.7349,0.735,0,0.7444,0.7446,0.7447,0.7564,0.7566,0.7568,0.757,0.7667,0.7668,0.7668,0,0,0,0,0,0,0,0,0,0,0,0,0,0.7267,0.7268,0.7349,0.735,0.7351,0.7444,0.7446,0.7447,0.7564,0.7566,0.7568,0.7571,0.7666,0.7667,0.7668,0,0,0,0,0,0,0,0,0,0,0,0,0,0.7327,0.7268,0.7348,0.7421,0.7428,0.7444,0.7446,0.7447,0.7563,0.7566,0.7569,0.7572,0.7666,0.7667,0.7669,0.7621,0,0,0.7673,0.7673,0,0,0,0,0,0,0,0,0.7323,0.733,0.7409,0.7416,0.7424,0.7495,0.7453,0.7505,0.7563,0.7512,0.757,0.7573,0.7607,0.7614,0.7626,0.7626,0.763,0.7673,0.7673,0.7674,0.7674,0,0,0,0,0,0,0,0.7319,0.7326,0.7387,0.741,0.7419,0.7448,0.746,0.7463,0.7543,0.7517,0.7525,0.7535,0.7612,0.7624,0.7629,0.7631,0.7673,0.7674,0.7675,0.7675,0.76,0.7597,0,0,0,0,0,0,0.7304,0.7322,0.7384,0.7389,0.7379,0.7448,0.7461,0.747,0.7543,0.7557,0.7533,0.754,0.762,0.7627,0.7632,0.7584,0.7674,0.7675,0.7676,0.7602,0.7599,0.7596,0,0,0,0,0,0,0.7302,0.7308,0.738,0.7358,0.7369,0.7446,0.7455,0.747,0.7482,0.7555,0.757,0.753,0.7623,0.7631,0.7624,0.7588,0.7676,0.7677,0.7606,0.7601,0.7597,0.7483,0,0,0,0,0,0,0.7299,0.7307,0.7289,0.7357,0.737,0.7369,0.7453,0.747,0.7484,0.7495,0.7557,0.757,0.7626,0.7621,0.7625,0.7592,0.7678,0.7609,0.7604,0.7599,0.7491,0.7476,0.7463,0,0,0,0,0,0.7296,0.7253,0.7288,0.7295,0.735,0.7366,0.7374,0.7439,0.7481,0.7464,0.7512,0.7568,0.7591,0.7619,0.7625,0.7591,0.7612,0.7605,0.7599,0.7497,0.7479,0.7463,0,0,0,0,0,0,0.7178,0.7263,0.7303,0.728,0.7315,0.7386,0.7367,0.7418,0.7441,0.745,0.753,0.7543,0.7527,0.7559,0.7588,0.755,0.761,0.7604,0.753,0.7514,0.75,0.7493,0.7679,0,0,0,0,0,0.715,0.7156,0.723,0.7203,0.7218,0.7289,0.7299,0.7346,0.7386,0.7401,0.7448,0.7484,0.75,0.7508,0.7527,0.7496,0.7512,0.7476,0.7462,0.745,0.7445,0.7432,0.7418,0.7575,0.7575,0.7576,0,0,0.7091,0.7138,0.7137,0.718,0.7213,0.7219,0.7301,0.7303,0.7308,0.7401,0.7398,0.7434,0.7479,0.746,0.7454,0.7486,0.7405,0.7442,0.7432,0.7433,0.7424,0.7409,0.7396,0.7571,0.7572,0.7573,0,0,0.6987,0.7022,0.7005,0.7036,0.7085,0.7133,0.7129,0.7192,0.722,0.7218,0.7289,0.7296,0.7321,0.7351,0.737,0.7279,0.7332,0.7282,0.7211,0.7198,0.7185,0.7175,0.7144,0.7132,0.7276,0.7276,0.7276,0,0.6907,0.6918,0.6989,0.6987,0.7005,0.7091,0.7074,0.7101,0.7153,0.7163,0.7198,0.7233,0.727,0.726,0.7238,0.725,0.7248,0.7276,0.7181,0.7172,0.7163,0.7134,0.7122,0.727,0.7271,0.7271,0.7272,0,0.6819,0.6825,0.6805,0.6855,0.687,0.686,0.693,0.6937,0.6984,0.7028,0.7026,0.7073,0.7103,0.7104,0.7149,0.7102,0.712,0.7167,0.7229,0.714,0.7115,0.7104,0.7261,0.7263,0.7265,0.7267,0,0,0.6643,0.6733,0.6724,0.6749,0.681,0.6816,0.6811,0.6841,0.6846,0.688,0.6878,0.6898,0.6943,0.6964,0.7013,0.7001,0.6928,0.705,0.7053,0.7027,0.6881,0.6845,0.6831,0.6964,0.6962,0.696,0.6877,0,0.6551,0.6547,0.6612,0.6591,0.6599,0.6681,0.6677,0.6714,0.6755,0.6768,0.6814,0.6828,0.6885,0.6898,0.689,0.6938,0.69,0.6945,0.6964,0.6964,0.6951,0.6818,0.6781,0.67,0.6868,0.6866,0.6865,0,0.6443,0.6471,0.6451,0.6515,0.6521,0.6515,0.655,0.656,0.6605,0.6636,0.666,0.6716,0.6717,0.6775,0.6777,0.6806,0.6818,0.6843,0.6841,0.6846,0.6909,0.682,0.6675,0.6663,0.6849,0.6851,0.6852,0,0.6318,0.6351,0.6344,0.6362,0.6436,0.6431,0.6461,0.6508,0.6523,0.6553,0.6563,0.6592,0.6608,0.6629,0.6693,0.6729,0.6688,0.6751,0.6714,0.6713,0.6703,0.6702,0.6558,0.6708,0.6708,0.6708,0.6708,0,0.6209,0.6194,0.629,0.6285,0.6271,0.6345,0.6329,0.6368,0.6409,0.6414,0.6487,0.649,0.6573,0.6586,0.6635,0.663,0.6636,0.6662,0.6676,0.6656,0.6653,0.6665,0.6673,0.6705,0.6706,0.6706,0.6707,0,0.6068,0.6131,0.6129,0.6199,0.6217,0.6203,0.6264,0.6263,0.6309,0.6315,0.632,0.6393,0.6412,0.6477,0.6512,0.6545,0.6525,0.655,0.651,0.6519,0.648,0.6483,0.6339,0.6325,0.6482,0.648,0.6479,0,0.5994,0.5985,0.6055,0.6064,0.6091,0.6104,0.612,0.6193,0.6207,0.6258,0.6251,0.6276,0.63,0.6326,0.6382,0.641,0.6437,0.6385,0.6441,0.6423,0.6438,0.6438,0.6438,0.6372,0.637,0.6368,0.6367,0,0.5858,0.589,0.5911,0.5942,0.5959,0.5987,0.6019,0.6022,0.6104,0.6116,0.6137,0.6155,0.6192,0.6216,0.6252,0.6285,0.6339,0.6349,0.6342,0.6323,0.63,0.6313,0.6478,0.6352,0.6353,0.6354,0.6355,0.6356,0.575,0.5746,0.5795,0.5815,0.5848,0.5876,0.588,0.5927,0.5945,0.5981,0.6023,0.6039,0.6086,0.6141,0.6169,0.6183,0.6213,0.6202,0.62,0.6197,0.6188,0.6297,0.619,0.619,0.6191,0.6191,0.6191,0,0.5619,0.5654,0.5672,0.5716,0.5732,0.5783,0.5822,0.5832,0.5845,0.5884,0.5907,0.5931,0.5955,0.6014,0.6044,0.6044,0.607,0.6049,0.6051,0.6057,0.6159,0.6162,0.6028,0.6028,0.6028,0.6028,0.6028,0.6028,0.5552,0.5549,0.5587,0.56,0.5637,0.5653,0.5671,0.5699,0.573,0.5754,0.5775,0.5813,0.586,0.5895,0.592,0.5936,0.5945,0.5916,0.5941,0.6034,0.605,0.6065,0.6069,0.5917,0.5916,0.5838,0.5838,0.5837]},{"header":{"parameterUnit":"m.s-1","parameterCategory":1,"la1":30.2991,"la2":30.254,"lo1":-89.0895,"lo2":-89.0444,"dy":0.0017,"dx":0.0017,"nx":28,"ny":28,"refTime":"2024-04-04T09:00:00:Z","depth":0,"parameterNumber":3,"parameterNumberName":"V-component_of_WINDS"},"data":[0,0,0,0,0,0,0,0,0,0,0,0,0,0,0,0,0,0,0,0,0,0,0,0,0,0,0,0,0,0,0,0,0,0,0,0,0,0,0,0,0,0,0,0,0,0,0,0,0,0,0,0,0,0,0,0,0,0,2.2604,2.2605,0,2.267,2.267,2.2671,2.2694,2.2694,2.2694,2.2694,2.2756,2.2758,2.276,0,0,0,0,0,0,0,0,0,0,0,0,0,2.2493,2.2495,2.2604,2.2605,2.2606,2.2669,2.267,2.2671,2.2695,2.2694,2.2694,2.2694,2.2756,2.2758,2.276,0,0,0,0,0,0,0,0,0,0,0,0,0,2.2548,2.2496,2.2604,2.2625,2.2628,2.2669,2.267,2.2671,2.2695,2.2694,2.2694,2.2694,2.2755,2.2758,2.276,2.2784,0,0,2.2769,2.277,0,0,0,0,0,0,0,0,2.2545,2.2552,2.2621,2.2624,2.2627,2.2674,2.2654,2.2709,2.2695,2.2669,2.2694,2.2693,2.2729,2.2734,2.2747,2.2787,2.279,2.2769,2.2771,2.2772,2.2773,0,0,0,0,0,0,0,2.2541,2.2549,2.263,2.2622,2.2626,2.2629,2.2637,2.2665,2.27,2.2671,2.2673,2.2681,2.273,2.2744,2.2748,2.2791,2.2769,2.2772,2.2773,2.2774,2.285,2.285,0,0,0,0,0,0,2.2534,2.2546,2.2628,2.2632,2.2584,2.2632,2.264,2.2659,2.27,2.2706,2.2681,2.2682,2.2739,2.2745,2.275,2.2779,2.2772,2.2775,2.2776,2.2849,2.285,2.285,0,0,0,0,0,0,2.2532,2.2542,2.2625,2.259,2.2601,2.2634,2.2655,2.266,2.2674,2.2707,2.2713,2.2689,2.2739,2.2746,2.2775,2.2781,2.2776,2.2779,2.2849,2.285,2.285,2.2837,0,0,0,0,0,0,2.2529,2.2541,2.2552,2.259,2.2602,2.2651,2.2655,2.2662,2.2679,2.2681,2.2716,2.2721,2.2739,2.2771,2.2778,2.2785,2.2781,2.2849,2.2849,2.285,2.2837,2.2837,2.2837,0,0,0,0,0,2.2525,2.2546,2.2553,2.2562,2.2618,2.2652,2.2658,2.268,2.268,2.269,2.271,2.272,2.2779,2.2773,2.2782,2.279,2.2848,2.2849,2.285,2.2837,2.2837,2.2837,0,0,0,0,0,0,2.2507,2.2551,2.2559,2.2594,2.2619,2.2655,2.267,2.268,2.2705,2.2705,2.2729,2.2736,2.2762,2.2779,2.2772,2.2813,2.2814,2.2816,2.2801,2.2802,2.2802,2.2797,2.2783,0,0,0,0,0,2.2508,2.2533,2.2569,2.2596,2.2608,2.2636,2.2652,2.2666,2.2693,2.2703,2.2726,2.275,2.2773,2.2788,2.2812,2.2839,2.2845,2.2848,2.2848,2.2848,2.2849,2.2862,2.2863,2.2852,2.2852,2.2852,0,0,2.2508,2.2535,2.255,2.2593,2.2614,2.2638,2.2645,2.2671,2.2688,2.2706,2.2735,2.2752,2.2779,2.2806,2.2819,2.2821,2.2853,2.2849,2.2848,2.285,2.2862,2.2863,2.2864,2.2853,2.2853,2.2853,0,0,2.2521,2.2546,2.2569,2.2589,2.2621,2.2639,2.2644,2.2679,2.2691,2.272,2.2734,2.2753,2.2794,2.2812,2.2827,2.2842,2.2851,2.2849,2.2849,2.286,2.2861,2.2862,2.2866,2.2867,2.2851,2.2851,2.285,0,2.2518,2.2556,2.2579,2.2603,2.262,2.2638,2.266,2.2678,2.2716,2.2726,2.2727,2.2777,2.2797,2.2827,2.283,2.2842,2.2847,2.2846,2.286,2.2861,2.2862,2.2865,2.2867,2.285,2.285,2.285,2.285,0,2.2549,2.2575,2.2589,2.2625,2.2643,2.2666,2.269,2.2705,2.2717,2.2733,2.276,2.2785,2.2812,2.282,2.2832,2.2851,2.285,2.2855,2.2857,2.2862,2.2865,2.2867,2.2849,2.2849,2.285,2.285,0,0,2.2556,2.2601,2.2606,2.2621,2.2656,2.2675,2.2696,2.2724,2.2736,2.276,2.2777,2.2809,2.2813,2.2829,2.2843,2.2853,2.286,2.2856,2.2857,2.2855,2.288,2.2876,2.2877,2.2866,2.2867,2.2867,2.2877,0,2.2572,2.2614,2.2633,2.2665,2.2687,2.2703,2.2721,2.2742,2.2758,2.2777,2.2793,2.2815,2.282,2.2829,2.284,2.2857,2.2866,2.2857,2.288,2.2881,2.2873,2.288,2.2876,2.2885,2.2879,2.2879,2.2879,0,2.2598,2.2622,2.2656,2.2685,2.2695,2.2711,2.2736,2.2755,2.2778,2.2788,2.2805,2.2817,2.2838,2.2837,2.2864,2.2858,2.2868,2.2877,2.2878,2.2881,2.2881,2.2882,2.2888,2.2889,2.2882,2.2882,2.2882,0,2.2597,2.2637,2.2662,2.2675,2.271,2.272,2.2735,2.2758,2.2772,2.2793,2.2802,2.2825,2.2837,2.2853,2.2869,2.2868,2.2894,2.2896,2.2901,2.29,2.2906,2.2906,2.2914,2.2913,2.2913,2.2913,2.2913,0,2.2613,2.2633,2.2662,2.2677,2.2699,2.2719,2.2739,2.2754,2.2774,2.2791,2.2805,2.282,2.2841,2.2858,2.2871,2.289,2.2895,2.2902,2.2905,2.2901,2.29,2.2908,2.2908,2.2914,2.2914,2.2914,2.2914,0,2.2616,2.2636,2.2664,2.2694,2.2702,2.2716,2.274,2.2754,2.2769,2.279,2.2796,2.2819,2.2839,2.2857,2.2884,2.2892,2.2911,2.2915,2.2903,2.2905,2.2909,2.2908,2.2922,2.2924,2.2923,2.2923,2.2923,0,2.2624,2.264,2.2671,2.2683,2.2698,2.2718,2.2732,2.2751,2.2765,2.2791,2.2801,2.2822,2.284,2.2871,2.2889,2.2908,2.2913,2.2916,2.2916,2.291,2.2911,2.291,2.2911,2.2916,2.2916,2.2916,2.2916,0,2.2637,2.2645,2.2666,2.2689,2.2706,2.2725,2.2744,2.2753,2.2775,2.279,2.2811,2.2825,2.2851,2.2871,2.2892,2.2905,2.2913,2.2916,2.2918,2.2913,2.2905,2.2908,2.2902,2.2915,2.2916,2.2916,2.2916,2.2916,2.2642,2.2655,2.2679,2.27,2.2716,2.2733,2.2747,2.2763,2.2782,2.2805,2.2815,2.2835,2.2855,2.2884,2.2896,2.2911,2.2913,2.2916,2.2917,2.2917,2.2916,2.2903,2.2915,2.2915,2.2915,2.2915,2.2915,0,2.2654,2.2669,2.2689,2.2715,2.2731,2.2738,2.2758,2.2771,2.2789,2.2807,2.2824,2.2847,2.2865,2.2884,2.2903,2.2911,2.2915,2.2915,2.2915,2.2917,2.2914,2.291,2.2911,2.2911,2.2911,2.2911,2.2911,2.2911,2.2662,2.2684,2.2695,2.2724,2.2739,2.276,2.277,2.2785,2.2799,2.2824,2.284,2.2852,2.2869,2.2889,2.2906,2.291,2.2916,2.2915,2.292,2.2917,2.2918,2.2918,2.2914,2.2916,2.2916,2.2922,2.2922,2.2922]}]]